TimeAEST,TemperatureF,Dew PointF,Humidity,Sea Level PressureIn,VisibilityMPH,Wind Direction,Wind SpeedMPH,Gust SpeedMPH,PrecipitationIn,Events,Conditions,WindDirDegrees,DateUTC
12:00 AM,77,68,68,29.91,16,South,5.8,,,,Partly Cloudy,170,2011-11-20 14:00:00
12:00 AM,77.0,68.0,74,29.89,6.2,South,5.8,-,N/A,,Scattered Clouds,170,2011-11-20 14:00:00
12:30 AM,77.0,68.0,74,29.89,6.2,SSE,8.1,-,N/A,,Scattered Clouds,160,2011-11-20 14:30:00
1:00 AM,76,69,73,29.89,,South,8.1,,,,,170,2011-11-20 15:00:00
1:00 AM,77.0,69.8,78,29.89,6.2,South,8.1,-,N/A,,Partly Cloudy,170,2011-11-20 15:00:00
1:30 AM,75.2,68.0,78,29.86,6.2,South,6.9,-,N/A,,Partly Cloudy,170,2011-11-20 15:30:00
2:00 AM,77.0,68.0,74,29.86,6.2,South,6.9,-,N/A,,Partly Cloudy,190,2011-11-20 16:00:00
2:30 AM,75.2,69.8,83,29.86,6.2,South,6.9,-,N/A,Rain,Light Rain Showers,180,2011-11-20 16:30:00
3:00 AM,74,70,84,29.86,16,SE,5.8,,,Rain,Light Rain Showers,130,2011-11-20 17:00:00
3:00 AM,75.2,69.8,83,29.86,6.2,SE,5.8,-,N/A,,Scattered Clouds,130,2011-11-20 17:00:00
3:30 AM,75.2,69.8,83,29.86,6.2,SE,6.9,-,N/A,,Partly Cloudy,140,2011-11-20 17:30:00
4:00 AM,74,69,81,29.86,,SSE,3.5,,,,,160,2011-11-20 18:00:00
4:00 AM,73.4,69.8,88,29.86,6.2,SSE,3.5,-,N/A,,Partly Cloudy,160,2011-11-20 18:00:00
4:30 AM,73.4,69.8,88,29.86,6.2,South,1.2,-,N/A,,Partly Cloudy,170,2011-11-20 18:30:00
5:00 AM,73.4,69.8,88,29.86,6.2,SSE,2.3,-,N/A,,Partly Cloudy,150,2011-11-20 19:00:00
5:30 AM,73.4,69.8,88,29.86,6.2,SE,9.2,-,N/A,,Scattered Clouds,140,2011-11-20 19:30:00
6:00 AM,74,69,79,29.88,16,SE,8.1,,,,Partly Cloudy,130,2011-11-20 20:00:00
6:00 AM,73.4,69.8,88,29.86,6.2,SE,8.1,-,N/A,,Partly Cloudy,130,2011-11-20 20:00:00
6:30 AM,75.2,69.8,83,29.89,6.2,SE,9.2,-,N/A,,Partly Cloudy,130,2011-11-20 20:30:00
7:00 AM,78,69,66,29.91,,SSE,6.9,,,,,160,2011-11-20 21:00:00
7:00 AM,78.8,68.0,69,29.89,6.2,SSE,6.9,-,N/A,,Partly Cloudy,160,2011-11-20 21:00:00
7:30 AM,78.8,68.0,69,29.89,6.2,South,9.2,-,N/A,,Partly Cloudy,170,2011-11-20 21:30:00
8:00 AM,78.8,68.0,69,29.89,6.2,South,9.2,-,N/A,,Partly Cloudy,170,2011-11-20 22:00:00
8:30 AM,80.6,68.0,65,29.89,6.2,South,9.2,-,N/A,,Partly Cloudy,190,2011-11-20 22:30:00
9:00 AM,82,68,55,29.91,16,South,9.2,,,,Partly Cloudy,170,2011-11-20 23:00:00
9:00 AM,82.4,68.0,62,29.89,6.2,South,9.2,-,N/A,,Partly Cloudy,170,2011-11-20 23:00:00
10:00 AM,84,68,50,29.91,,SE,10.4,,,,,140,2011-11-21 00:00:00
10:00 AM,84.2,68.0,58,29.89,6.2,SE,10.4,-,N/A,,Partly Cloudy,140,2011-11-21 00:00:00
10:30 AM,84.2,68.0,58,29.89,6.2,SE,12.7,-,N/A,,Partly Cloudy,130,2011-11-21 00:30:00
11:00 AM,84.2,68.0,58,29.89,6.2,SE,10.4,-,N/A,,Partly Cloudy,130,2011-11-21 01:00:00
11:30 AM,86.0,66.2,51,29.86,6.2,SE,6.9,-,N/A,,Partly Cloudy,130,2011-11-21 01:30:00
12:00 PM,85,67,45,29.86,16,ENE,9.2,,,,Partly Cloudy,70,2011-11-21 02:00:00
12:00 PM,84.2,66.2,55,29.86,6.2,ENE,9.2,-,N/A,,Partly Cloudy,70,2011-11-21 02:00:00
12:30 PM,87.8,66.2,49,29.83,6.2,ENE,11.5,-,N/A,,Partly Cloudy,70,2011-11-21 02:30:00
1:00 PM,87,68,43,29.84,,ENE,11.5,,,,,60,2011-11-21 03:00:00
1:00 PM,86.0,68.0,55,29.83,6.2,ENE,11.5,-,N/A,,Partly Cloudy,60,2011-11-21 03:00:00
1:30 PM,84.2,66.2,55,29.83,6.2,East,13.8,-,N/A,,Partly Cloudy,80,2011-11-21 03:30:00
2:00 PM,84.2,68.0,58,29.80,6.2,East,12.7,-,N/A,,Partly Cloudy,80,2011-11-21 04:00:00
2:30 PM,84.2,66.2,55,29.80,6.2,East,12.7,-,N/A,,Partly Cloudy,90,2011-11-21 04:30:00
3:00 PM,83,67,50,29.81,19,East,15.0,,,,Partly Cloudy,80,2011-11-21 05:00:00
3:00 PM,84.2,68.0,58,29.80,6.2,East,15.0,-,N/A,,Partly Cloudy,80,2011-11-21 05:00:00
3:30 PM,82.4,68.0,62,29.80,6.2,East,12.7,-,N/A,,Partly Cloudy,80,2011-11-21 05:30:00
4:00 PM,83,68,52,29.80,,East,11.5,,,,,90,2011-11-21 06:00:00
4:00 PM,82.4,68.0,62,29.80,6.2,East,11.5,-,N/A,,Scattered Clouds,90,2011-11-21 06:00:00
4:30 PM,82.4,68.0,62,29.77,6.2,ESE,11.5,-,N/A,,Scattered Clouds,120,2011-11-21 06:30:00
5:00 PM,82.4,68.0,62,29.80,6.2,ESE,13.8,-,N/A,,Partly Cloudy,120,2011-11-21 07:00:00
5:30 PM,80.6,68.0,65,29.80,6.2,ESE,10.4,-,N/A,,Partly Cloudy,110,2011-11-21 07:30:00
6:00 PM,81,69,59,29.82,,ESE,10.4,,,,,120,2011-11-21 08:00:00
6:00 PM,80.6,69.8,70,29.80,6.2,ESE,10.4,-,N/A,,Partly Cloudy,120,2011-11-21 08:00:00
6:30 PM,78.8,69.8,74,29.83,6.2,SE,8.1,-,N/A,,Partly Cloudy,140,2011-11-21 08:30:00
7:00 PM,79,69,65,29.84,,SE,10.4,,,,,130,2011-11-21 09:00:00
7:00 PM,78.8,69.8,74,29.83,6.2,SE,10.4,-,N/A,,Partly Cloudy,130,2011-11-21 09:00:00
7:30 PM,78.8,69.8,74,29.83,6.2,South,5.8,-,N/A,,Mostly Cloudy,170,2011-11-21 09:30:00
8:00 PM,78.8,69.8,74,29.83,6.2,South,5.8,-,N/A,,Mostly Cloudy,170,2011-11-21 10:00:00
8:30 PM,77.0,69.8,78,29.83,6.2,South,5.8,-,N/A,,Scattered Clouds,170,2011-11-21 10:30:00
9:00 PM,78,69,67,29.86,19,South,5.8,,,,Partly Cloudy,170,2011-11-21 11:00:00
9:00 PM,78.8,69.8,74,29.86,6.2,South,5.8,-,N/A,,Mostly Cloudy,170,2011-11-21 11:00:00
9:30 PM,77.0,69.8,78,29.86,6.2,South,6.9,-,N/A,,Mostly Cloudy,170,2011-11-21 11:30:00
10:00 PM,78,69,67,29.88,,South,5.8,,,,,180,2011-11-21 12:00:00
10:00 PM,77.0,69.8,78,29.86,6.2,South,5.8,-,N/A,,Scattered Clouds,180,2011-11-21 12:00:00
10:30 PM,77.0,69.8,78,29.86,6.2,South,6.9,-,N/A,,Partly Cloudy,180,2011-11-21 12:30:00
11:00 PM,77.0,68.0,74,29.86,6.2,South,5.8,-,N/A,,Partly Cloudy,180,2011-11-21 13:00:00
11:30 PM,77.0,68.0,74,29.86,6.2,South,6.9,-,N/A,,Partly Cloudy,190,2011-11-21 13:30:00